Location: Montreal
(45.5000°N, 73.5833°W)
Time: 15:00:28
(UTC-04:00)

ISS - Pass Details

Date: 07 October 2017
Orbit: 400 x 408 km, 51.6° (Epoch: 24 October)

Event Time Altitude Azimuth Distance (km) Brightness Sun altitude
Rises 20:41:37 0° 299° (WNW) 2,330 1.3 -24.9°
Reaches altitude 10° 20:43:44 10° 303° (WNW) 1,470 0.0 -25.2°
Enters shadow 20:45:23 26° 314° (NW) 839 -1.7 -25.5°
